Location: Anjeux
(47.8815°N, 6.2076°E)
Time: 11:19:55
(UTC+00:00)

AO-27 - Pass Details

Date: 14 December 2021
Orbit: 784 x 798 km, 98.9° (Epoch: 24 January)

Event Time Altitude Azimuth Distance (km) Brightness Sun altitude
Rises 17:57:56 0° 164° (SSE) 3,289 10.8 -21.6°
Reaches altitude 10° 18:00:15 10° 164° (SSE) 2,364 10.1 -21.9°
Maximum altitude 18:05:29 87° 251° (WSW) 806 7.6 -22.8°
Drops below altitude 10° 18:10:47 10° 345° (NNW) 2,382 10.2 -23.7°
Sets 18:13:07 0° 345° (NNW) 3,315 11.0 -24.1°
